| time (UTC) | temp F | wind direction | speed MPH | gust MPH | rain 1hr in | rain 24hr in | rain mn in | humidity % | barometer mb |
| 20260505064729 | 97 | 194 | 4.0 | 11.0 | 0.00 | 0.00 | 0.00 | 48 | 1008.5 |
| 20260505064227 | 98 | 158 | 6.0 | 9.0 | 0.00 | 0.00 | 0.00 | 45 | 1008.5 |
| 20260505063727 | 99 | 238 | 3.0 | 6.0 | 0.00 | 0.00 | 0.00 | 42 | 1008.5 |
| 20260505063227 | 99 | 141 | 2.0 | 3.0 | 0.00 | 0.00 | 0.00 | 41 | 1008.5 |
| 20260505062727 | 98 | 206 | 2.0 | 3.0 | 0.00 | 0.00 | 0.00 | 42 | 1008.8 |
| 20260505062228 | 98 | 184 | 5.0 | 8.0 | 0.00 | 0.00 | 0.00 | 42 | 1008.5 |
| 20260505061727 | 98 | 157 | 5.0 | 9.0 | 0.00 | 0.00 | 0.00 | 44 | 1008.5 |
| 20260505061227 | 98 | 181 | 3.0 | 8.0 | 0.00 | 0.00 | 0.00 | 43 | 1008.5 |
| 20260505060728 | 97 | 171 | 3.0 | 5.0 | 0.00 | 0.00 | 0.00 | 43 | 1008.5 |
| 20260505060228 | 97 | 160 | 3.0 | 8.0 | 0.00 | 0.00 | 0.00 | 44 | 1008.8 |
| 20260505055728 | 98 | 196 | 5.0 | 14.0 | 0.00 | 0.00 | 0.00 | 44 | 1008.5 |
| 20260505055227 | 98 | 140 | 5.0 | 8.0 | 0.00 | 0.00 | 0.00 | 44 | 1008.5 |
| 20260505054728 | 96 | 77 | 2.0 | 5.0 | 0.00 | 0.00 | 0.00 | 46 | 1008.8 |
| 20260505054227 | 97 | 188 | 5.0 | 9.0 | 0.00 | 0.00 | 0.00 | 45 | 1008.8 |
| 20260505053727 | 97 | 162 | 3.0 | 7.0 | 0.00 | 0.00 | 0.00 | 46 | 1009.1 |
| 20260505053228 | 96 | 293 | 1.0 | 7.0 | 0.00 | 0.00 | 0.00 | 48 | 1009.1 |
| 20260505052727 | 96 | 211 | 5.0 | 6.0 | 0.00 | 0.00 | 0.00 | 48 | 1009.1 |
| 20260505052228 | 96 | 224 | 3.0 | 8.0 | 0.00 | 0.00 | 0.00 | 45 | 1009.1 |
| 20260505051728 | 96 | 235 | 2.0 | 6.0 | 0.00 | 0.00 | 0.00 | 47 | 1009.1 |
| 20260505051228 | 96 | 123 | 3.0 | 7.0 | 0.00 | 0.00 | 0.00 | 47 | 1009.5 |
| 20260505050727 | 96 | 125 | 3.0 | 5.0 | 0.00 | 0.00 | 0.00 | 50 | 1009.1 |
| 20260505050227 | 96 | 193 | 1.0 | 7.0 | 0.00 | 0.00 | 0.00 | 50 | 1009.5 |
| 20260505041727 | 92 | 166 | 3.0 | 8.0 | 0.00 | 0.00 | 0.00 | 58 | 1009.5 |
| 20260505041227 | 93 | 204 | 3.0 | 8.0 | 0.00 | 0.00 | 0.00 | 59 | 1009.8 |
| 20260505040727 | 92 | 183 | 3.0 | 6.0 | 0.00 | 0.00 | 0.00 | 61 | 1009.5 |
| 20260505040228 | 92 | 192 | 3.0 | 8.0 | 0.00 | 0.00 | 0.00 | 61 | 1009.5 |
| 20260505035728 | 93 | 143 | 3.0 | 8.0 | 0.00 | 0.00 | 0.00 | 59 | 1009.5 |
| 20260505035227 | 93 | 106 | 3.0 | 5.0 | 0.00 | 0.00 | 0.00 | 60 | 1009.8 |
| 20260505034727 | 93 | 174 | 3.0 | 6.0 | 0.00 | 0.00 | 0.00 | 61 | 1009.5 |
| 20260505034228 | 91 | 151 | 0.0 | 2.0 | 0.00 | 0.00 | 0.00 | 64 | 1009.5 |
| 20260505033727 | 92 | 211 | 2.0 | 6.0 | 0.00 | 0.00 | 0.00 | 64 | 1009.5 |
| 20260505033229 | 91 | 229 | 2.0 | 5.0 | 0.00 | 0.00 | 0.00 | 63 | 1009.8 |
| 20260505032727 | 90 | 164 | 1.0 | 6.0 | 0.00 | 0.00 | 0.00 | 67 | 1009.5 |
| 20260505032227 | 90 | 157 | 1.0 | 5.0 | 0.00 | 0.00 | 0.00 | 68 | 1009.5 |
| 20260505031727 | 89 | 89 | 0.0 | 2.0 | 0.00 | 0.00 | 0.00 | 69 | 1009.5 |
| 20260505031227 | 89 | 218 | 0.0 | 2.0 | 0.00 | 0.00 | 0.00 | 70 | 1009.5 |
| 20260505030729 | 89 | 164 | 1.0 | 5.0 | 0.00 | 0.00 | 0.00 | 70 | 1009.5 |
| 20260505030228 | 89 | 100 | 1.0 | 3.0 | 0.00 | 0.00 | 0.00 | 71 | 1009.5 |
| 20260505025727 | 88 | 123 | 0.0 | 2.0 | 0.00 | 0.00 | 0.00 | 73 | 1009.5 |
| 20260505025227 | 88 | 179 | 4.0 | 6.0 | 0.00 | 0.00 | 0.00 | 72 | 1009.5 |
| 20260505024727 | 88 | 116 | 0.0 | 2.0 | 0.00 | 0.00 | 0.00 | 73 | 1009.1 |
| 20260505024227 | 88 | 80 | 1.0 | 2.0 | 0.00 | 0.00 | 0.00 | 74 | 1009.5 |
| 20260505023727 | 88 | 98 | 1.0 | 3.0 | 0.00 | 0.00 | 0.00 | 74 | 1009.5 |
| 20260505023227 | 88 | 84 | 1.0 | 1.0 | 0.00 | 0.00 | 0.00 | 76 | 1009.5 |
| 20260505022728 | 88 | 119 | 1.0 | 2.0 | 0.00 | 0.00 | 0.00 | 76 | 1009.5 |
| 20260505022228 | 87 | 194 | 2.0 | 5.0 | 0.00 | 0.00 | 0.00 | 77 | 1009.1 |
| 20260505021727 | 87 | 101 | 2.0 | 3.0 | 0.00 | 0.00 | 0.00 | 78 | 1009.1 |
| 20260505021230 | 86 | 92 | 1.0 | 1.0 | 0.00 | 0.00 | 0.00 | 80 | 1009.1 |
| 20260505020730 | 86 | 99 | 1.0 | 3.0 | 0.00 | 0.00 | 0.00 | 81 | 1008.8 |
| 20260505020228 | 86 | 101 | 0.0 | 2.0 | 0.00 | 0.00 | 0.00 | 82 | 1008.5 |
| 20260505015727 | 86 | 107 | 1.0 | 3.0 | 0.00 | 0.00 | 0.00 | 82 | 1008.8 |
| 20260505015227 | 86 | 87 | 1.0 | 2.0 | 0.00 | 0.00 | 0.00 | 83 | 1008.5 |
| 20260505014727 | 85 | 98 | 1.0 | 3.0 | 0.00 | 0.00 | 0.00 | 83 | 1008.5 |
| 20260505014227 | 85 | 105 | 0.0 | 2.0 | 0.00 | 0.00 | 0.00 | 83 | 1008.5 |
| 20260505013727 | 85 | 84 | 0.0 | 3.0 | 0.00 | 0.00 | 0.00 | 83 | 1008.8 |
| 20260505013228 | 85 | 114 | 1.0 | 2.0 | 0.00 | 0.00 | 0.00 | 83 | 1008.5 |
| 20260505012728 | 85 | 110 | 1.0 | 1.0 | 0.00 | 0.00 | 0.00 | 83 | 1008.5 |
| 20260505012227 | 85 | 133 | 0.0 | 2.0 | 0.00 | 0.00 | 0.00 | 84 | 1008.5 |
| 20260505011728 | 85 | 102 | 1.0 | 2.0 | 0.00 | 0.00 | 0.00 | 84 | 1008.1 |
| 20260505011227 | 85 | 150 | 1.0 | 3.0 | 0.00 | 0.00 | 0.00 | 84 | 1008.1 |
| 20260505010727 | 84 | 109 | 1.0 | 1.0 | 0.00 | 0.00 | 0.00 | 84 | 1008.1 |
| 20260505010229 | 84 | 107 | 0.0 | 2.0 | 0.00 | 0.00 | 0.00 | 85 | 1008.1 |
| 20260505005727 | 83 | 99 | 1.0 | 2.0 | 0.00 | 0.00 | 0.00 | 85 | 1008.1 |
| 20260505005228 | 83 | 83 | 0.0 | 1.0 | 0.00 | 0.00 | 0.00 | 86 | 1008.1 |
| 20260505004727 | 83 | 84 | 2.0 | 3.0 | 0.00 | 0.00 | 0.00 | 86 | 1007.8 |
| 20260505004227 | 83 | 102 | 1.0 | 2.0 | 0.00 | 0.00 | 0.00 | 87 | 1008.1 |
| 20260505003727 | 82 | 106 | 0.0 | 1.0 | 0.00 | 0.00 | 0.00 | 87 | 1007.8 |
| 20260505003229 | 82 | 108 | 1.0 | 3.0 | 0.00 | 0.00 | 0.00 | 87 | 1007.8 |
| 20260505002727 | 82 | 118 | 1.0 | 2.0 | 0.00 | 0.00 | 0.00 | 87 | 1007.8 |
| 20260505002227 | 82 | 119 | 0.0 | 1.0 | 0.00 | 0.00 | 0.00 | 87 | 1007.8 |
| 20260505001727 | 82 | 121 | 0.0 | 1.0 | 0.00 | 0.00 | 0.00 | 86 | 1007.8 |
| 20260505001228 | 82 | 121 | 0.0 | 2.0 | 0.00 | 0.00 | 0.00 | 86 | 1007.8 |
| 20260505000728 | 83 | 153 | 0.0 | 0.0 | 0.00 | 0.00 | 0.00 | 86 | 1007.8 |
| 20260505000227 | 82 | 157 | 0.0 | 0.0 | 0.00 | 0.00 | 0.00 | 86 | 1007.5 |
| 20260504235728 | 82 | 158 | 0.0 | 0.0 | 0.00 | 0.00 | 0.00 | 87 | 1007.8 |
| 20260504235227 | 82 | 158 | 0.0 | 0.0 | 0.00 | 0.00 | 0.00 | 87 | 1007.8 |
| 20260504234727 | 82 | 158 | 1.0 | 1.0 | 0.00 | 0.00 | 0.00 | 87 | 1007.5 |
| 20260504234228 | 82 | 157 | 0.0 | 1.0 | 0.00 | 0.00 | 0.00 | 87 | 1007.5 |
| 20260504233727 | 82 | 147 | 0.0 | 1.0 | 0.00 | 0.00 | 0.00 | 87 | 1007.5 |
| 20260504233228 | 82 | 156 | 0.0 | 0.0 | 0.00 | 0.00 | 0.00 | 87 | 1007.5 |
| 20260504232727 | 82 | 158 | 1.0 | 1.0 | 0.00 | 0.00 | 0.00 | 87 | 1007.5 |
| 20260504232228 | 82 | 119 | 0.0 | 0.0 | 0.00 | 0.00 | 0.00 | 87 | 1007.5 |
| 20260504231728 | 82 | 119 | 1.0 | 1.0 | 0.00 | 0.00 | 0.00 | 87 | 1007.5 |
| 20260504231227 | 82 | 144 | 1.0 | 1.0 | 0.00 | 0.00 | 0.00 | 87 | 1007.5 |
| 20260504230728 | 82 | 144 | 0.0 | 0.0 | 0.00 | 0.00 | 0.00 | 87 | 1007.5 |
| 20260504230227 | 83 | 144 | 0.0 | 0.0 | 0.00 | 0.00 | 0.00 | 86 | 1007.5 |
| 20260504225728 | 83 | 144 | 1.0 | 2.0 | 0.00 | 0.00 | 0.00 | 86 | 1007.5 |
| 20260504225228 | 83 | 163 | 0.0 | 0.0 | 0.00 | 0.00 | 0.00 | 86 | 1007.5 |
| 20260504224731 | 83 | 163 | 0.0 | 0.0 | 0.00 | 0.00 | 0.00 | 86 | 1007.5 |
| 20260504224228 | 83 | 163 | 0.0 | 0.0 | 0.00 | 0.00 | 0.00 | 86 | 1007.1 |
| 20260504223727 | 83 | 163 | 0.0 | 0.0 | 0.00 | 0.00 | 0.00 | 86 | 1007.1 |
| 20260504223228 | 83 | 163 | 0.0 | 0.0 | 0.00 | 0.00 | 0.00 | 86 | 1007.5 |
| 20260504222727 | 83 | 165 | 0.0 | 1.0 | 0.00 | 0.00 | 0.00 | 86 | 1007.5 |
| 20260504222230 | 83 | 165 | 0.0 | 0.0 | 0.00 | 0.00 | 0.00 | 86 | 1007.1 |
| 20260504221728 | 83 | 165 | 0.0 | 0.0 | 0.00 | 0.00 | 0.00 | 85 | 1007.5 |
| 20260504221229 | 83 | 165 | 0.0 | 0.0 | 0.00 | 0.00 | 0.00 | 85 | 1007.5 |
| 20260504220727 | 84 | 165 | 0.0 | 1.0 | 0.00 | 0.00 | 0.00 | 85 | 1007.5 |
| 20260504220227 | 84 | 164 | 0.0 | 0.0 | 0.00 | 0.00 | 0.00 | 85 | 1007.1 |
| 20260504215729 | 84 | 165 | 1.0 | 1.0 | 0.00 | 0.00 | 0.00 | 85 | 1007.5 |
| 20260504215227 | 84 | 168 | 1.0 | 2.0 | 0.00 | 0.00 | 0.00 | 85 | 1007.5 |
| 20260504214728 | 84 | 167 | 2.0 | 3.0 | 0.00 | 0.00 | 0.00 | 85 | 1007.1 |
| 20260504214227 | 84 | 186 | 1.0 | 3.0 | 0.00 | 0.00 | 0.00 | 85 | 1007.5 |
| 20260504213728 | 84 | 169 | 1.0 | 3.0 | 0.00 | 0.00 | 0.00 | 85 | 1007.1 |
| 20260504213228 | 84 | 211 | 1.0 | 3.0 | 0.00 | 0.00 | 0.00 | 85 | 1007.5 |
| 20260504212727 | 84 | 158 | 1.0 | 3.0 | 0.00 | 0.00 | 0.00 | 85 | 1007.5 |
| 20260504212229 | 84 | 162 | 2.0 | 2.0 | 0.00 | 0.00 | 0.00 | 85 | 1007.5 |
| 20260504211727 | 84 | 163 | 2.0 | 3.0 | 0.00 | 0.00 | 0.00 | 85 | 1007.5 |
| 20260504211232 | 84 | 191 | 1.0 | 3.0 | 0.00 | 0.00 | 0.00 | 85 | 1007.5 |
| 20260504210727 | 84 | 122 | 1.0 | 3.0 | 0.00 | 0.00 | 0.00 | 85 | 1007.1 |
| 20260504210229 | 84 | 184 | 0.0 | 1.0 | 0.00 | 0.00 | 0.00 | 85 | 1007.5 |
| 20260504205728 | 84 | 156 | 2.0 | 5.0 | 0.00 | 0.00 | 0.00 | 85 | 1007.1 |
| 20260504205228 | 84 | 156 | 3.0 | 5.0 | 0.00 | 0.00 | 0.00 | 85 | 1007.1 |
| 20260504204730 | 84 | 186 | 3.0 | 3.0 | 0.00 | 0.00 | 0.00 | 85 | 1007.5 |
| 20260504204227 | 84 | 141 | 1.0 | 5.0 | 0.00 | 0.00 | 0.00 | 85 | 1007.5 |
| 20260504203727 | 84 | 168 | 3.0 | 5.0 | 0.00 | 0.00 | 0.00 | 85 | 1007.5 |
| 20260504203229 | 84 | 142 | 1.0 | 5.0 | 0.00 | 0.00 | 0.00 | 85 | 1007.5 |
| 20260504202727 | 84 | 177 | 1.0 | 5.0 | 0.00 | 0.00 | 0.00 | 85 | 1007.5 |
| 20260504202231 | 84 | 165 | 1.0 | 5.0 | 0.00 | 0.00 | 0.00 | 85 | 1007.5 |
| 20260504201728 | 84 | 110 | 2.0 | 5.0 | 0.00 | 0.00 | 0.00 | 85 | 1007.5 |
| 20260504201227 | 84 | 193 | 2.0 | 3.0 | 0.00 | 0.00 | 0.00 | 84 | 1007.5 |
| 20260504200729 | 84 | 184 | 0.0 | 3.0 | 0.00 | 0.00 | 0.00 | 84 | 1007.5 |
| 20260504200229 | 84 | 153 | 1.0 | 5.0 | 0.00 | 0.00 | 0.00 | 84 | 1007.8 |
| 20260504195731 | 84 | 183 | 2.0 | 5.0 | 0.00 | 0.00 | 0.00 | 84 | 1007.8 |
| 20260504195228 | 84 | 193 | 2.0 | 3.0 | 0.00 | 0.00 | 0.00 | 84 | 1007.8 |
| 20260504194727 | 84 | 222 | 1.0 | 2.0 | 0.00 | 0.00 | 0.00 | 84 | 1007.8 |
| 20260504194228 | 84 | 164 | 1.0 | 5.0 | 0.00 | 0.00 | 0.00 | 84 | 1007.5 |
| 20260504193727 | 84 | 154 | 4.0 | 5.0 | 0.00 | 0.00 | 0.00 | 84 | 1007.8 |
| 20260504193227 | 84 | 169 | 3.0 | 3.0 | 0.00 | 0.00 | 0.00 | 84 | 1007.8 |
| 20260504192727 | 84 | 167 | 2.0 | 3.0 | 0.00 | 0.00 | 0.00 | 84 | 1007.5 |
| 20260504192227 | 84 | 186 | 1.0 | 3.0 | 0.00 | 0.00 | 0.00 | 83 | 1007.5 |
| 20260504191727 | 84 | 168 | 0.0 | 1.0 | 0.00 | 0.00 | 0.00 | 83 | 1007.5 |
| 20260504191227 | 84 | 171 | 0.0 | 2.0 | 0.00 | 0.00 | 0.00 | 84 | 1007.5 |
| 20260504190729 | 84 | 198 | 3.0 | 6.0 | 0.00 | 0.00 | 0.00 | 83 | 1007.5 |
| 20260504190228 | 84 | 206 | 0.0 | 2.0 | 0.00 | 0.00 | 0.00 | 83 | 1007.8 |
| 20260504185727 | 84 | 112 | 1.0 | 2.0 | 0.00 | 0.00 | 0.00 | 83 | 1007.5 |
| 20260504185231 | 84 | 118 | 0.0 | 1.0 | 0.00 | 0.00 | 0.00 | 83 | 1007.5 |
| 20260504184728 | 84 | 105 | 0.0 | 2.0 | 0.00 | 0.00 | 0.00 | 82 | 1007.5 |
| 20260504184229 | 84 | 99 | 0.0 | 1.0 | 0.00 | 0.00 | 0.00 | 82 | 1007.5 |
| 20260504183727 | 84 | 100 | 1.0 | 3.0 | 0.00 | 0.00 | 0.00 | 83 | 1007.5 |
| 20260504183228 | 84 | 157 | 2.0 | 3.0 | 0.00 | 0.00 | 0.00 | 83 | 1007.8 |
| 20260504182730 | 84 | 114 | 0.0 | 1.0 | 0.00 | 0.00 | 0.00 | 82 | 1007.5 |
| 20260504182229 | 85 | 202 | 1.0 | 2.0 | 0.00 | 0.00 | 0.00 | 82 | 1007.5 |
| 20260504181729 | 85 | 148 | 0.0 | 2.0 | 0.00 | 0.00 | 0.00 | 82 | 1007.5 |
| 20260504181227 | 84 | 91 | 0.0 | 2.0 | 0.00 | 0.00 | 0.00 | 82 | 1007.5 |
| 20260504180729 | 85 | 165 | 3.0 | 5.0 | 0.00 | 0.00 | 0.00 | 82 | 1007.8 |
| 20260504180228 | 85 | 196 | 1.0 | 2.0 | 0.00 | 0.00 | 0.00 | 82 | 1007.8 |
| 20260504175729 | 85 | 167 | 1.0 | 1.0 | 0.00 | 0.00 | 0.00 | 82 | 1007.8 |
| 20260504175227 | 85 | 136 | 0.0 | 1.0 | 0.00 | 0.00 | 0.00 | 82 | 1007.8 |
| 20260504174727 | 85 | 137 | 1.0 | 1.0 | 0.00 | 0.00 | 0.00 | 82 | 1007.8 |
| 20260504174228 | 85 | 164 | 0.0 | 2.0 | 0.00 | 0.00 | 0.00 | 82 | 1007.8 |
| 20260504173727 | 85 | 184 | 1.0 | 3.0 | 0.00 | 0.00 | 0.00 | 82 | 1007.8 |
| 20260504173227 | 85 | 196 | 1.0 | 3.0 | 0.00 | 0.00 | 0.00 | 82 | 1007.8 |
| 20260504172728 | 85 | 175 | 2.0 | 5.0 | 0.00 | 0.00 | 0.00 | 82 | 1008.1 |
| 20260504172229 | 85 | 167 | 3.0 | 3.0 | 0.00 | 0.00 | 0.00 | 82 | 1008.1 |
| 20260504171727 | 85 | 163 | 1.0 | 2.0 | 0.00 | 0.00 | 0.00 | 82 | 1008.1 |
| 20260504171231 | 85 | 172 | 1.0 | 2.0 | 0.00 | 0.00 | 0.00 | 81 | 1007.8 |
| 20260504170731 | 85 | 191 | 1.0 | 2.0 | 0.00 | 0.00 | 0.00 | 81 | 1007.8 |
| 20260504170230 | 85 | 143 | 1.0 | 5.0 | 0.00 | 0.00 | 0.00 | 81 | 1007.8 |
| 20260504160229 | 85 | 130 | 2.0 | 2.0 | 0.00 | 0.00 | 0.00 | 81 | 1007.1 |
| 20260504150727 | 86 | 84 | 3.0 | 5.0 | 0.00 | 0.00 | 0.00 | 76 | 1006.1 |
| 20260504150228 | 86 | 85 | 0.0 | 2.0 | 0.00 | 0.00 | 0.00 | 75 | 1006.1 |
| 20260504141230 | 86 | 102 | 0.0 | 3.0 | 0.00 | 0.00 | 0.00 | 72 | 1005.8 |
| 20260504140727 | 86 | 123 | 1.0 | 2.0 | 0.00 | 0.00 | 0.00 | 72 | 1005.4 |
| 20260504140228 | 86 | 75 | 0.0 | 3.0 | 0.00 | 0.00 | 0.00 | 72 | 1005.1 |
| 20260504130727 | 87 | 102 | 3.0 | 5.0 | 0.00 | 0.00 | 0.00 | 69 | 1004.7 |
| 20260504130230 | 88 | 101 | 3.0 | 7.0 | 0.00 | 0.00 | 0.00 | 69 | 1004.4 |
| 20260504120228 | 91 | 125 | 1.0 | 10.0 | 0.00 | 0.00 | 0.00 | 63 | 1004.1 |
| 20260504110227 | 93 | 214 | 7.0 | 8.0 | 0.00 | 0.00 | 0.00 | 54 | 1004.1 |
| 20260504100229 | 98 | 168 | 4.0 | 8.0 | 0.00 | 0.00 | 0.00 | 47 | 1004.4 |
| 20260504081730 | 100 | 195 | 3.0 | 6.0 | 0.00 | 0.00 | 0.00 | 42 | 1005.8 |
| 20260504081227 | 100 | 187 | 3.0 | 5.0 | 0.00 | 0.00 | 0.00 | 42 | 1005.8 |
| 20260504080727 | 100 | 243 | 3.0 | 8.0 | 0.00 | 0.00 | 0.00 | 39 | 1005.8 |
| 20260504080229 | 100 | 125 | 4.0 | 8.0 | 0.00 | 0.00 | 0.00 | 38 | 1006.1 |
| 20260504070228 | 99 | 257 | 3.0 | 5.0 | 0.00 | 0.00 | 0.00 | 44 | 1006.8 |